Dewpoint
42 43 46 49 52 54 56 57 57 58 59 58 58 57 57 58 58 58 58 58 58 57 57 58 59 59 59 59 59 59 59 59 59 59 59 60 60 59 57 56 56 56 57 57 56 53 52 50 50 50 50 50 49 48 47 46 47 47 47 47 47 47 47 47 46 46 45 44 43
40 41 43 46 48 51 54 56 57 58 58 59 58 58 57 57 57 57 57 58 58 57 57 58 58 59 59 59 59 59 59 58 58 59 59 60 59 57 56 56 56 56 56 56 53 52 51 50 50 50 49 49 48 47 47 46 47 47 47 46 46 47 47 47 46 45 44 43 43
40 40 41 42 44 47 50 53 55 56 57 58 58 58 58 57 57 57 57 57 57 57 57 58 58 58 58 58 58 58 58 58 58 58 58 58 56 56 55 55 56 56 56 54 52 52 51 51 50 50 49 49 48 47 47 46 47 47 47 46 46 46 46 46 45 45 44 43 42
41 40 39 39 40 43 46 50 52 55 56 57 57 58 58 57 57 57 56 56 56 56 57 57 57 57 57 57 58 58 58 58 58 57 57 55 55 55 55 56 56 55 54 53 52 52 52 51 51 50 49 49 48 48 47 47 46 47 47 47 46 46 46 46 45 44 43 43 42
43 42 41 39 39 40 42 46 49 52 54 56 56 56 56 56 56 56 56 56 56 56 56 57 57 57 57 57 57 57 57 57 57 56 55 53 54 54 55 54 54 53 53 52 52 52 51 51 51 50 50 49 49 48 47 47 46 47 47 47 47 46 46 45 44 44 43 43 42
43 44 43 42 41 40 40 42 45 48 51 53 54 55 55 55 56 56 56 56 56 56 56 56 56 56 56 57 57 57 56 56 56 55 53 53 53 53 53 53 53 53 52 51 51 51 50 51 51 50 50 49 49 48 48 47 46 46 46 46 46 46 45 44 44 43 43 43 42
43 44 44 45 43 42 41 40 42 44 47 50 52 53 54 54 54 55 55 56 56 56 56 56 56 56 56 56 56 56 56 55 55 53 52 52 52 52 52 52 51 51 52 51 51 51 51 51 51 50 49 49 48 47 47 46 46 46 45 45 44 44 44 43 43 43 43 42 41
43 43 44 45 45 44 43 42 41 42 43 46 49 51 52 53 54 54 55 55 56 56 56 56 57 57 56 56 56 55 54 53 52 52 51 51 51 51 50 49 50 50 50 51 51 51 51 51 50 49 49 48 47 47 46 46 45 45 44 43 43 43 43 43 42 42 42 41 40
43 44 45 47 47 47 46 44 43 43 43 43 46 49 51 52 54 55 56 59 58 58 59 57 57 56 56 56 55 54 53 52 51 51 50 50 50 49 49 49 49 50 50 50 51 50 50 50 49 49 48 47 47 46 46 45 45 44 43 43 42 42 42 42 42 42 41 40 39
44 45 46 47 47 47 47 47 46 44 44 44 45 47 50 52 54 56 57 61 59 58 57 56 56 55 55 54 54 53 54 54 54 53 51 50 51 50 49 49 49 49 50 50 50 50 50 49 48 48 47 46 46 45 45 44 44 43 43 42 41 41 41 41 41 41 41 40 39
44 45 46 46 47 47 47 47 47 46 46 45 46 48 50 53 56 57 58 59 57 56 55 55 54 54 53 52 52 51 51 50 51 52 51 51 49 49 49 49 49 50 50 50 50 50 49 48 47 47 46 45 45 44 44 43 43 42 41 41 41 40 40 41 41 40 40 40 39
45 46 47 47 47 48 48 48 47 47 47 47 49 51 53 56 56 57 57 57 56 54 53 53 53 53 52 50 49 49 48 48 49 49 49 49 49 49 49 50 50 50 50 50 49 49 49 47 47 46 45 44 44 44 43 43 42 41 40 40 40 40 40 39 40 40 40 39 38
45 46 47 47 48 48 48 48 48 48 49 50 52 54 55 56 55 54 54 53 52 51 51 51 52 52 51 49 48 47 47 47 47 48 48 48 48 48 49 49 49 50 49 49 49 48 48 47 46 45 44 44 44 43 43 43 42 41 40 40 40 39 39 39 39 39 39 38 38
46 47 47 48 49 48 48 48 48 50 51 53 53 53 53 52 52 52 51 51 50 49 49 49 48 48 47 47 47 47 47 47 47 47 47 47 47 47 48 48 48 48 48 48 48 47 47 46 46 45 44 43 43 43 43 43 42 41 40 39 39 39 38 38 38 38 37 36 36
46 47 48 50 49 48 47 48 50 51 52 52 52 51 51 50 50 50 49 48 48 48 47 47 46 46 46 46 46 46 46 46 46 46 46 46 46 46 47 47 47 47 47 47 46 46 46 46 45 44 44 43 43 43 43 42 42 41 40 39 39 38 38 38 37 36 36 35 35
47 48 50 51 50 49 48 50 52 52 51 51 50 49 49 48 48 48 47 47 47 47 46 46 45 45 45 45 45 45 45 45 45 45 45 45 45 45 45 45 46 45 45 45 45 45 45 45 45 44 43 43 43 42 42 42 41 41 40 39 39 38 38 37 36 36 35 36 36
48 49 50 50 50 50 50 51 51 50 50 49 48 47 47 46 46 47 47 46 45 45 45 44 44 44 44 44 44 44 44 44 44 44 44 44 44 44 44 44 44 43 43 43 43 43 44 44 44 44 43 43 42 42 41 41 41 40 40 40 39 38 38 37 36 36 36 36 36
49 50 50 50 50 50 50 50 49 48 47 47 46 45 45 45 45 45 45 45 44 43 43 43 43 43 43 43 43 43 43 43 43 43 43 43 43 43 43 43 42 42 42 41 42 42 42 43 43 43 42 42 41 41 41 41 40 40 40 38 38 38 38 38 37 36 36 36 36
50 50 50 50 49 49 49 48 47 47 46 45 45 44 44 43 43 43 43 43 43 43 43 43 43 43 43 43 43 43 43 43 43 43 43 43 42 42 41 41 41 40 40 40 40 40 40 41 41 41 41 41 41 40 40 40 40 39 38 38 38 37 37 37 37 37 37 36 36
50 50 49 49 48 47 47 47 46 45 45 44 44 44 43 43 43 42 42 42 42 42 43 43 43 43 43 43 43 43 43 43 43 42 42 42 41 41 40 40 40 39 39 39 39 39 39 39 39 39 39 39 39 39 40 40 40 39 38 38 38 38 37 37 37 37 36 36 35
49 48 48 47 47 46 46 45 45 44 44 44 44 43 43 43 42 42 42 42 43 43 43 43 43 43 43 43 43 43 43 43 42 41 41 40 40 40 39 39 39 39 39 39 39 39 39 39 39 39 39 39 38 39 39 39 39 39 39 38 38 38 38 38 38 37 36 36 35
47 47 47 46 46 45 45 45 44 44 44 44 44 43 43 43 43 43 43 43 43 43 43 43 43 43 43 43 42 42 42 41 41 40 40 39 39 39 39 39 39 40 40 40 39 39 39 39 39 39 39 39 38 38 38 38 38 38 38 38 38 38 38 38 38 37 36 36 36
47 46 46 45 45 45 45 45 44 44 44 43 43 43 43 43 43 43 43 43 43 43 43 43 43 43 42 42 41 41 40 40 40 39 39 39 39 39 40 40 40 41 40 40 40 40 40 40 39 39 39 38 38 38 38 38 38 38 38 38 38 38 38 37 37 37 36 36 36
46 46 45 45 45 45 45 45 45 44 43 43 43 43 43 43 43 43 43 43 43 43 42 42 42 41 41 41 40 40 39 39 39 39 39 39 39 40 40 40 40 40 40 40 41 41 41 40 40 39 39 39 38 38 38 38 38 38 37 37 37 37 36 36 36 36 36 36 36
45 45 45 45 45 45 44 44 44 44 43 43 43 43 43 42 42 42 42 42 42 41 41 41 41 40 40 40 39 39 39 39 39 39 39 39 40 40 40 40 40 40 40 41 41 41 41 41 40 40 39 39 38 38 38 38 37 37 36 36 36 35 35 35 34 34 34 34 34
44 44 44 44 44 44 44 44 44 43 43 43 43 42 42 42 41 41 41 41 41 41 41 41 40 40 40 39 39 39 39 39 39 39 39 40 40 40 39 40 40 40 41 41 41 41 41 41 41 40 40 39 38 38 38 37 37 36 35 35 35 34 34 34 34 33 33 33 33
44 44 44 44 44 44 43 43 43 43 43 42 42 41 41 41 41 40 40 40 40 40 40 40 40 40 40 39 39 39 39 39 39 38 38 39 39 39 39 40 40 40 41 42 42 42 42 41 41 40 39 38 38 38 37 37 36 36 35 35 34 34 34 34 33 33 33 32 32
44 44 44 43 43 43 43 43 43 42 42 41 41 40 40 40 40 40 40 40 40 40 40 40 40 40 40 39 39 38 38 38 38 38 38 38 38 39 39 40 40 41 41 42 42 42 42 41 41 40 39 38 38 37 37 36 36 36 36 35 35 34 34 34 33 33 33 32 32
43 43 43 43 42 42 42 42 41 41 40 40 40 40 40 39 39 39 39 39 39 40 40 40 40 40 40 39 39 39 38 38 38 38 38 38 38 39 39 40 40 41 41 42 42 42 42 41 40 40 39 38 38 38 37 36 36 35 35 35 34 34 34 33 33 32 32 32 31
43 42 42 42 41 41 41 41 40 40 40 40 39 39 39 39 39 39 39 39 39 40 40 40 40 40 39 39 39 39 39 39 38 38 38 38 38 38 39 39 40 40 41 42 42 41 41 40 40 39 39 38 37 36 35 35 35 34 34 34 34 33 33 32 32 31 31 30 29
42 42 42 41 41 40 40 40 40 39 39 39 39 39 39 39 39 39 39 39 40 40 40 40 39 39 39 39 39 39 39 38 38 38 38 38 38 39 39 40 40 41 41 41 41 41 41 40 39 39 38 37 36 35 34 34 34 33 33 33 32 32 32 31 31 30 29 29 28
42 41 41 40 40 40 39 39 39 39 39 39 39 39 39 39 39 39 40 40 40 40 40 39 39 39 39 39 39 39 39 38 38 38 38 38 39 39 40 40 40 41 41 41 41 41 40 39 38 38 37 36 34 34 33 33 33 32 32 32 31 31 31 30 29 29 29 28 28
41 41 40 39 39 39 39 38 38 38 38 38 38 38 38 39 39 39 39 39 39 39 39 39 38 38 38 39 39 38 38 38 39 39 39 39 40 40 41 41 41 41 41 41 40 40 39 38 38 37 36 35 34 33 32 32 32 31 31 30 30 30 29 29 29 29 29 29 28
40 39 39 38 38 38 38 38 38 38 38 38 38 38 38 38 38 38 39 39 39 39 39 39 38 38 38 38 38 38 38 39 39 40 40 41 41 41 41 41 41 41 41 40 40 39 38 38 38 37 36 35 34 32 31 31 30 30 30 29 29 29 29 29 29 29 28 28 27
39 39 38 38 38 38 38 38 38 38 38 38 38 38 38 39 39 39 39 39 39 39 39 39 39 39 38 38 38 38 38 38 39 40 40 41 40 40 40 40 40 40 40 39 39 38 38 38 37 36 35 34 32 31 30 29 29 29 29 29 29 28 28 28 28 28 27 26 25
39 38 38 38 38 38 38 39 39 39 39 39 39 39 39 39 39 39 39 39 39 39 39 39 39 39 39 39 38 39 39 39 39 40 40 40 39 39 39 38 39 39 39 38 38 38 37 37 36 35 34 32 31 30 29 29 29 28 28 28 28 27 27 27 27 26 25 25 24
39 38 38 38 39 39 39 39 39 39 39 39 39 39 39 39 39 39 39 39 38 38 39 39 39 39 39 39 39 40 40 40 40 40 40 39 38 38 38 37 38 38 38 38 38 37 36 36 35 34 32 30 29 29 29 28 28 27 27 27 27 27 26 26 26 25 25 24 24
40 39 39 39 40 40 40 39 39 39 39 39 38 38 39 39 39 39 39 38 38 39 39 39 39 39 39 40 40 40 40 40 39 39 38 38 37 37 36 36 36 37 37 37 37 36 36 35 34 33 31 29 29 28 28 27 27 26 26 26 26 26 26 26 25 25 25 25 25
41 41 40 40 40 40 39 39 39 38 38 38 38 38 38 38 39 39 39 39 39 39 39 39 39 40 40 40 40 39 39 39 38 38 37 37 36 36 36 35 36 36 36 36 36 36 35 34 34 33 31 29 28 27 27 26 26 25 25 25 25 25 25 25 25 25 25 25 26
40 40 40 40 39 39 39 38 38 38 38 38 38 38 38 38 39 39 39 39 40 40 39 39 39 39 39 39 38 38 38 38 37 37 36 36 36 35 35 35 35 35 35 35 35 35 34 34 34 33 31 29 28 27 27 26 25 25 24 23 23 23 23 23 23 23 23 23 24
40 40 39 39 39 39 38 38 38 38 38 38 38 38 38 39 39 39 39 39 39 38 38 38 37 37 37 37 36 36 35 35 35 35 35 35 35 35 34 34 34 34 35 35 34 34 34 34 33 32 31 29 28 27 26 25 24 23 22 22 21 21 21 22 22 22 22 22 22